owner,sensor,date,latitude,longitude,vertical_datum,sea_water_temperature,qcFlag
Shell,ioos:station:wmo:42882:1,2023-01-01T00:04:00Z,28.1809,-89.2854,9.2,23.6,11111222
Shell,ioos:station:wmo:42882:1,2023-01-01T00:15:00Z,28.1809,-89.2854,9.3,23.6,11111222
Shell,ioos:station:wmo:42882:1,2023-01-01T00:24:00Z,28.1809,-89.2854,9.3,23.6,11111222
Shell,ioos:station:wmo:42882:1,2023-01-01T00:35:00Z,28.1809,-89.2854,9.3,23.6,11111222
Shell,ioos:station:wmo:42882:1,2023-01-01T00:45:00Z,28.1809,-89.2854,9.4,23.6,11111222
Shell,ioos:station:wmo:42882:1,2023-01-01T00:55:00Z,28.1809,-89.2854,9.4,23.6,11111222
Shell,ioos:station:wmo:42882:1,2023-01-01T01:05:00Z,28.1809,-89.2854,9.3,23.6,11111222
Shell,ioos:station:wmo:42882:1,2023-01-01T01:15:00Z,28.1809,-89.2854,9.4,23.6,11111222
Shell,ioos:station:wmo:42882:1,2023-01-01T01:25:00Z,28.1809,-89.2854,9.4,23.6,11111222
Shell,ioos:station:wmo:42882:1,2023-01-01T01:35:00Z,28.1809,-89.2854,9.4,23.6,11111222
Shell,ioos:station:wmo:42882:1,2023-01-01T01:45:00Z,28.1809,-89.2854,9.4,23.6,11111222
Shell,ioos:station:wmo:42882:1,2023-01-01T01:55:00Z,28.1809,-89.2854,9.3,23.6,11111222
Shell,ioos:station:wmo:42882:1,2023-01-01T02:05:00Z,28.1809,-89.2854,9.4,23.6,11111222
Shell,ioos:station:wmo:42882:1,2023-01-01T02:15:00Z,28.1809,-89.2854,9.3,23.6,11111222
Shell,ioos:station:wmo:42882:1,2023-01-01T02:25:00Z,28.1809,-89.2854,9.3,23.6,11111222
Shell,ioos:station:wmo:42882:1,2023-01-01T02:35:00Z,28.1809,-89.2854,9.3,23.6,11111222
Shell,ioos:station:wmo:42882:1,2023-01-01T02:44:00Z,28.1809,-89.2854,9.4,23.6,11111222
Shell,ioos:station:wmo:42882:1,2023-01-01T02:55:00Z,28.1809,-89.2854,9.5,23.6,11111222
Shell,ioos:station:wmo:42882:1,2023-01-01T03:04:00Z,28.1809,-89.2854,9.3,23.6,11111222
Shell,ioos:station:wmo:42882:1,2023-01-01T03:15:00Z,28.1809,-89.2854,9.3,23.6,11111222
Shell,ioos:station:wmo:42882:1,2023-01-01T03:25:00Z,28.1809,-89.2854,9.3,23.6,11111222
Shell,ioos:station:wmo:42882:1,2023-01-01T03:35:00Z,28.1809,-89.2854,9.3,23.6,11111222
Shell,ioos:station:wmo:42882:1,2023-01-01T03:45:00Z,28.1809,-89.2854,9.3,23.6,11111222
Shell,ioos:station:wmo:42882:1,2023-01-01T03:55:00Z,28.1809,-89.2854,9.2,23.6,11111222
Shell,ioos:station:wmo:42882:1,2023-01-01T04:04:00Z,28.1809,-89.2854,9.3,23.6,11111222
Shell,ioos:station:wmo:42882:1,2023-01-01T04:15:00Z,28.1809,-89.2854,9.3,23.6,11111222
Shell,ioos:station:wmo:42882:1,2023-01-01T04:25:00Z,28.1809,-89.2854,9.3,23.6,11111222
Shell,ioos:station:wmo:42882:1,2023-01-01T04:35:00Z,28.1809,-89.2854,9.3,23.7,11111222
Shell,ioos:station:wmo:42882:1,2023-01-01T04:44:00Z,28.1809,-89.2854,9.3,23.7,11111222
Shell,ioos:station:wmo:42882:1,2023-01-01T04:55:00Z,28.1809,-89.2854,9.3,23.7,11111222
Shell,ioos:station:wmo:42882:1,2023-01-01T05:05:00Z,28.1809,-89.2854,9.3,23.7,11111222
Shell,ioos:station:wmo:42882:1,2023-01-01T05:15:00Z,28.1809,-89.2854,9.4,23.7,11111222
Shell,ioos:station:wmo:42882:1,2023-01-01T05:25:00Z,28.1809,-89.2854,9.2,23.7,11111222
Shell,ioos:station:wmo:42882:1,2023-01-01T05:34:00Z,28.1809,-89.2854,9.3,23.7,11111222
Shell,ioos:station:wmo:42882:1,2023-01-01T05:45:00Z,28.1809,-89.2854,9.3,23.7,11111222
Shell,ioos:station:wmo:42882:1,2023-01-01T05:55:00Z,28.1809,-89.2854,9.2,23.7,11111222
Shell,ioos:station:wmo:42882:1,2023-01-01T06:05:00Z,28.1809,-89.2854,9.3,23.7,11111222
Shell,ioos:station:wmo:42882:1,2023-01-01T06:14:00Z,28.1809,-89.2854,9.3,23.7,11111222
Shell,ioos:station:wmo:42882:1,2023-01-01T06:25:00Z,28.1809,-89.2854,9.3,23.8,11111222
Shell,ioos:station:wmo:42882:1,2023-01-01T06:35:00Z,28.1809,-89.2854,9.4,23.8,11111222
Shell,ioos:station:wmo:42882:1,2023-01-01T06:44:00Z,28.1809,-89.2854,9.4,23.8,11111222
Shell,ioos:station:wmo:42882:1,2023-01-01T06:55:00Z,28.1809,-89.2854,9.4,23.8,11111222
Shell,ioos:station:wmo:42882:1,2023-01-01T07:05:00Z,28.1809,-89.2854,9.3,23.8,11111222
Shell,ioos:station:wmo:42882:1,2023-01-01T07:15:00Z,28.1809,-89.2854,9.4,23.8,11111222
Shell,ioos:station:wmo:42882:1,2023-01-01T07:25:00Z,28.1809,-89.2854,9.4,23.8,11111222
Shell,ioos:station:wmo:42882:1,2023-01-01T07:34:00Z,28.1809,-89.2854,9.4,23.8,11111222
Shell,ioos:station:wmo:42882:1,2023-01-01T07:44:00Z,28.1809,-89.2854,9.4,23.8,11111222
Shell,ioos:station:wmo:42882:1,2023-01-01T07:55:00Z,28.1809,-89.2854,9.4,23.8,11111222
Shell,ioos:station:wmo:42882:1,2023-01-01T08:05:00Z,28.1809,-89.2854,9.4,23.8,11111222
Shell,ioos:station:wmo:42882:1,2023-01-01T08:15:00Z,28.1809,-89.2854,9.4,23.8,11111222
Shell,ioos:station:wmo:42882:1,2023-01-01T08:24:00Z,28.1809,-89.2854,9.4,23.8,11111222
Shell,ioos:station:wmo:42882:1,2023-01-01T08:35:00Z,28.1809,-89.2854,9.4,23.8,11111222
Shell,ioos:station:wmo:42882:1,2023-01-01T08:45:00Z,28.1809,-89.2854,9.4,23.8,11111222
Shell,ioos:station:wmo:42882:1,2023-01-01T08:54:00Z,28.1809,-89.2854,9.4,23.8,11111222
Shell,ioos:station:wmo:42882:1,2023-01-01T09:04:00Z,28.1809,-89.2854,9.4,23.8,11111222
Shell,ioos:station:wmo:42882:1,2023-01-01T09:15:00Z,28.1809,-89.2854,9.4,23.8,11111222
Shell,ioos:station:wmo:42882:1,2023-01-01T09:25:00Z,28.1809,-89.2854,9.4,23.8,11111222
Shell,ioos:station:wmo:42882:1,2023-01-01T09:35:00Z,28.1809,-89.2854,9.4,23.8,11111222
Shell,ioos:station:wmo:42882:1,2023-01-01T09:45:00Z,28.1809,-89.2854,9.4,23.8,11111222
Shell,ioos:station:wmo:42882:1,2023-01-01T09:55:00Z,28.1809,-89.2854,9.4,23.8,11111222
Shell,ioos:station:wmo:42882:1,2023-01-01T10:05:00Z,28.1809,-89.2854,9.1,23.8,11111222
Shell,ioos:station:wmo:42882:1,2023-01-01T10:15:00Z,28.1809,-89.2854,9.5,23.8,11111222
Shell,ioos:station:wmo:42882:1,2023-01-01T10:25:00Z,28.1809,-89.2854,9.4,23.8,11111222
Shell,ioos:station:wmo:42882:1,2023-01-01T10:35:00Z,28.1809,-89.2854,9.1,23.8,11111222
Shell,ioos:station:wmo:42882:1,2023-01-01T10:45:00Z,28.1809,-89.2854,9.5,23.8,11111222
Shell,ioos:station:wmo:42882:1,2023-01-01T10:55:00Z,28.1809,-89.2854,9.3,23.8,11111222
Shell,ioos:station:wmo:42882:1,2023-01-01T11:05:00Z,28.1809,-89.2854,9.6,23.8,11111222
Shell,ioos:station:wmo:42882:1,2023-01-01T11:15:00Z,28.1809,-89.2854,9.5,23.8,11111222
Shell,ioos:station:wmo:42882:1,2023-01-01T11:25:00Z,28.1809,-89.2854,9.4,23.8,11111222
Shell,ioos:station:wmo:42882:1,2023-01-01T11:34:00Z,28.1809,-89.2854,9.4,23.8,11111222
Shell,ioos:station:wmo:42882:1,2023-01-01T11:45:00Z,28.1809,-89.2854,9.4,23.8,11111222
Shell,ioos:station:wmo:42882:1,2023-01-01T11:55:00Z,28.1809,-89.2854,9.4,23.8,11111222
Shell,ioos:station:wmo:42882:1,2023-01-01T12:05:00Z,28.1809,-89.2854,9.5,23.8,11111222
Shell,ioos:station:wmo:42882:1,2023-01-01T12:15:00Z,28.1809,-89.2854,9.4,23.8,11111222
Shell,ioos:station:wmo:42882:1,2023-01-01T12:25:00Z,28.1809,-89.2854,9.5,23.8,11111222
Shell,ioos:station:wmo:42882:1,2023-01-01T12:35:00Z,28.1809,-89.2854,9.5,23.8,11111222
Shell,ioos:station:wmo:42882:1,2023-01-01T12:45:00Z,28.1809,-89.2854,9.5,23.8,11111222
Shell,ioos:station:wmo:42882:1,2023-01-01T12:55:00Z,28.1809,-89.2854,9.5,23.8,11111222
Shell,ioos:station:wmo:42882:1,2023-01-01T13:05:00Z,28.1809,-89.2854,9.5,23.8,11111222
Shell,ioos:station:wmo:42882:1,2023-01-01T13:15:00Z,28.1809,-89.2854,9.5,23.8,11111222
Shell,ioos:station:wmo:42882:1,2023-01-01T13:25:00Z,28.1809,-89.2854,9.5,23.7,11111222
Shell,ioos:station:wmo:42882:1,2023-01-01T13:34:00Z,28.1809,-89.2854,9.5,23.7,11111222
Shell,ioos:station:wmo:42882:1,2023-01-01T13:45:00Z,28.1809,-89.2854,9.4,23.7,11111222
Shell,ioos:station:wmo:42882:1,2023-01-01T13:55:00Z,28.1809,-89.2854,9.3,23.7,11111222
Shell,ioos:station:wmo:42882:1,2023-01-01T14:04:00Z,28.1809,-89.2854,9.3,23.7,11111222
Shell,ioos:station:wmo:42882:1,2023-01-01T14:15:00Z,28.1809,-89.2854,9.3,23.7,11111222
Shell,ioos:station:wmo:42882:1,2023-01-01T14:25:00Z,28.1809,-89.2854,9.3,23.7,11111222
Shell,ioos:station:wmo:42882:1,2023-01-01T14:35:00Z,28.1809,-89.2854,9.3,23.8,11111222
Shell,ioos:station:wmo:42882:1,2023-01-01T14:45:00Z,28.1809,-89.2854,9.2,23.7,11111222
Shell,ioos:station:wmo:42882:1,2023-01-01T14:54:00Z,28.1809,-89.2854,9.3,23.7,11111222
Shell,ioos:station:wmo:42882:1,2023-01-01T15:05:00Z,28.1809,-89.2854,9.3,23.7,11111222
Shell,ioos:station:wmo:42882:1,2023-01-01T15:14:00Z,28.1809,-89.2854,9.3,23.7,11111222
Shell,ioos:station:wmo:42882:1,2023-01-01T15:25:00Z,28.1809,-89.2854,9.3,23.7,11111222
Shell,ioos:station:wmo:42882:1,2023-01-01T15:35:00Z,28.1809,-89.2854,9.3,23.7,11111222
Shell,ioos:station:wmo:42882:1,2023-01-01T15:44:00Z,28.1809,-89.2854,9.3,23.8,11111222
Shell,ioos:station:wmo:42882:1,2023-01-01T15:55:00Z,28.1809,-89.2854,9.3,23.8,11111222
Shell,ioos:station:wmo:42882:1,2023-01-01T16:04:00Z,28.1809,-89.2854,9.3,23.8,11111222
Shell,ioos:station:wmo:42882:1,2023-01-01T16:15:00Z,28.1809,-89.2854,9.3,23.8,11111222
Shell,ioos:station:wmo:42882:1,2023-01-01T16:25:00Z,28.1809,-89.2854,9.3,23.8,11111222
Shell,ioos:station:wmo:42882:1,2023-01-01T16:35:00Z,28.1809,-89.2854,9.3,23.8,11111222
Shell,ioos:station:wmo:42882:1,2023-01-01T16:45:00Z,28.1809,-89.2854,9.3,23.8,11111222
Shell,ioos:station:wmo:42882:1,2023-01-01T16:55:00Z,28.1809,-89.2854,9.3,23.8,11111222
Shell,ioos:station:wmo:42882:1,2023-01-01T17:05:00Z,28.1809,-89.2854,9.3,23.8,11111222
Shell,ioos:station:wmo:42882:1,2023-01-01T17:15:00Z,28.1809,-89.2854,9.3,23.8,11111222
Shell,ioos:station:wmo:42882:1,2023-01-01T17:25:00Z,28.1809,-89.2854,9.3,23.9,11111222
Shell,ioos:station:wmo:42882:1,2023-01-01T17:34:00Z,28.1809,-89.2854,9.3,23.9,11111222
Shell,ioos:station:wmo:42882:1,2023-01-01T17:44:00Z,28.1809,-89.2854,9.3,23.9,11111222
Shell,ioos:station:wmo:42882:1,2023-01-01T17:55:00Z,28.1809,-89.2854,9.4,23.9,11111222
Shell,ioos:station:wmo:42882:1,2023-01-01T18:05:00Z,28.1809,-89.2854,9.3,23.9,11111222
Shell,ioos:station:wmo:42882:1,2023-01-01T18:15:00Z,28.1809,-89.2854,9.3,24.0,11111222
Shell,ioos:station:wmo:42882:1,2023-01-01T18:25:00Z,28.1809,-89.2854,9.3,24.0,11111222
Shell,ioos:station:wmo:42882:1,2023-01-01T18:35:00Z,28.1809,-89.2854,9.3,23.9,11111222
Shell,ioos:station:wmo:42882:1,2023-01-01T18:45:00Z,28.1809,-89.2854,9.3,23.8,11111222
Shell,ioos:station:wmo:42882:1,2023-01-01T18:55:00Z,28.1809,-89.2854,9.3,23.8,11111222
Shell,ioos:station:wmo:42882:1,2023-01-01T19:05:00Z,28.1809,-89.2854,9.3,23.8,11111222
Shell,ioos:station:wmo:42882:1,2023-01-01T19:15:00Z,28.1809,-89.2854,9.3,23.8,11111222
Shell,ioos:station:wmo:42882:1,2023-01-01T19:24:00Z,28.1809,-89.2854,9.4,23.8,11111222
Shell,ioos:station:wmo:42882:1,2023-01-01T19:35:00Z,28.1809,-89.2854,9.4,23.8,11111222
Shell,ioos:station:wmo:42882:1,2023-01-01T19:45:00Z,28.1809,-89.2854,9.4,23.8,11111222
Shell,ioos:station:wmo:42882:1,2023-01-01T19:55:00Z,28.1809,-89.2854,9.4,23.8,11111222
Shell,ioos:station:wmo:42882:1,2023-01-01T20:05:00Z,28.1809,-89.2854,9.2,23.8,11111222
Shell,ioos:station:wmo:42882:1,2023-01-01T20:15:00Z,28.1809,-89.2854,9.4,23.8,11111222
Shell,ioos:station:wmo:42882:1,2023-01-01T20:25:00Z,28.1809,-89.2854,9.3,23.8,11111222
Shell,ioos:station:wmo:42882:1,2023-01-01T20:34:00Z,28.1809,-89.2854,9.4,23.8,11111222
Shell,ioos:station:wmo:42882:1,2023-01-01T20:45:00Z,28.1809,-89.2854,9.4,23.8,11111222
Shell,ioos:station:wmo:42882:1,2023-01-01T20:54:00Z,28.1809,-89.2854,9.4,23.8,11111222
Shell,ioos:station:wmo:42882:1,2023-01-01T21:04:00Z,28.1809,-89.2854,9.4,23.9,11111222
Shell,ioos:station:wmo:42882:1,2023-01-01T21:15:00Z,28.1809,-89.2854,9.4,23.9,11111222
Shell,ioos:station:wmo:42882:1,2023-01-01T21:25:00Z,28.1809,-89.2854,9.4,23.8,11111222
Shell,ioos:station:wmo:42882:1,2023-01-01T21:35:00Z,28.1809,-89.2854,9.4,23.8,11111222
Shell,ioos:station:wmo:42882:1,2023-01-01T21:45:00Z,28.1809,-89.2854,9.4,23.8,11111222
Shell,ioos:station:wmo:42882:1,2023-01-01T21:55:00Z,28.1809,-89.2854,9.4,23.8,11111222
Shell,ioos:station:wmo:42882:1,2023-01-01T22:05:00Z,28.1809,-89.2854,9.4,23.9,11111222
Shell,ioos:station:wmo:42882:1,2023-01-01T22:15:00Z,28.1809,-89.2854,9.4,23.9,11111222
Shell,ioos:station:wmo:42882:1,2023-01-01T22:24:00Z,28.1809,-89.2854,9.3,23.9,11111222
Shell,ioos:station:wmo:42882:1,2023-01-01T22:35:00Z,28.1809,-89.2854,9.5,23.9,11111222
Shell,ioos:station:wmo:42882:1,2023-01-01T22:45:00Z,28.1809,-89.2854,9.4,24.0,11111222
Shell,ioos:station:wmo:42882:1,2023-01-01T22:55:00Z,28.1809,-89.2854,9.4,24.0,11111222
Shell,ioos:station:wmo:42882:1,2023-01-01T23:05:00Z,28.1809,-89.2854,9.5,23.9,11111222
Shell,ioos:station:wmo:42882:1,2023-01-01T23:15:00Z,28.1809,-89.2854,9.5,23.9,11111222
Shell,ioos:station:wmo:42882:1,2023-01-01T23:24:00Z,28.1809,-89.2854,9.5,23.9,11111222
Shell,ioos:station:wmo:42882:1,2023-01-01T23:35:00Z,28.1809,-89.2854,9.4,23.9,11111222
Shell,ioos:station:wmo:42882:1,2023-01-01T23:45:00Z,28.1809,-89.2854,9.4,23.9,11111222
Shell,ioos:station:wmo:42882:1,2023-01-01T23:55:00Z,28.1809,-89.2854,9.4,23.9,11111222
Shell,ioos:station:wmo:42882:1,2023-01-02T00:05:00Z,28.1809,-89.2854,9.4,23.9,11111222
Shell,ioos:station:wmo:42882:1,2023-01-02T00:15:00Z,28.1809,-89.2854,9.4,23.9,11111222
Shell,ioos:station:wmo:42882:1,2023-01-02T00:25:00Z,28.1809,-89.2854,9.4,23.9,11111222
Shell,ioos:station:wmo:42882:1,2023-01-02T00:35:00Z,28.1809,-89.2854,9.4,23.9,11111222
Shell,ioos:station:wmo:42882:1,2023-01-02T00:44:00Z,28.1809,-89.2854,9.4,23.9,11111222
Shell,ioos:station:wmo:42882:1,2023-01-02T00:55:00Z,28.1809,-89.2854,9.5,23.9,11111222
Shell,ioos:station:wmo:42882:1,2023-01-02T01:04:00Z,28.1809,-89.2854,9.4,23.9,11111222
Shell,ioos:station:wmo:42882:1,2023-01-02T01:15:00Z,28.1809,-89.2854,9.5,23.9,11111222
Shell,ioos:station:wmo:42882:1,2023-01-02T01:25:00Z,28.1809,-89.2854,9.5,23.9,11111222
Shell,ioos:station:wmo:42882:1,2023-01-02T01:35:00Z,28.1809,-89.2854,9.5,23.8,11111222
Shell,ioos:station:wmo:42882:1,2023-01-02T01:45:00Z,28.1809,-89.2854,9.2,23.8,11111222
Shell,ioos:station:wmo:42882:1,2023-01-02T01:55:00Z,28.1809,-89.2854,9.2,23.8,11111222
Shell,ioos:station:wmo:42882:1,2023-01-02T02:05:00Z,28.1809,-89.2854,9.3,23.8,11111222
Shell,ioos:station:wmo:42882:1,2023-01-02T02:15:00Z,28.1809,-89.2854,9.5,23.8,11111222
Shell,ioos:station:wmo:42882:1,2023-01-02T02:25:00Z,28.1809,-89.2854,9.5,23.8,11111222
Shell,ioos:station:wmo:42882:1,2023-01-02T02:35:00Z,28.1809,-89.2854,9.5,23.8,11111222
Shell,ioos:station:wmo:42882:1,2023-01-02T02:45:00Z,28.1809,-89.2854,9.5,23.8,11111222
Shell,ioos:station:wmo:42882:1,2023-01-02T02:55:00Z,28.1809,-89.2854,9.5,23.8,11111222
Shell,ioos:station:wmo:42882:1,2023-01-02T03:05:00Z,28.1809,-89.2854,9.4,23.8,11111222
Shell,ioos:station:wmo:42882:1,2023-01-02T03:15:00Z,28.1809,-89.2854,9.4,23.9,11111222
Shell,ioos:station:wmo:42882:1,2023-01-02T03:25:00Z,28.1809,-89.2854,9.5,23.9,11111222
Shell,ioos:station:wmo:42882:1,2023-01-02T03:35:00Z,28.1809,-89.2854,9.4,23.9,11111222
Shell,ioos:station:wmo:42882:1,2023-01-02T03:45:00Z,28.1809,-89.2854,9.4,23.9,11111222
Shell,ioos:station:wmo:42882:1,2023-01-02T03:54:00Z,28.1809,-89.2854,9.3,23.9,11111222
Shell,ioos:station:wmo:42882:1,2023-01-02T04:05:00Z,28.1809,-89.2854,9.1,23.9,11111222
Shell,ioos:station:wmo:42882:1,2023-01-02T04:15:00Z,28.1809,-89.2854,9.2,23.9,11111222
Shell,ioos:station:wmo:42882:1,2023-01-02T04:25:00Z,28.1809,-89.2854,9.5,23.9,11111222
Shell,ioos:station:wmo:42882:1,2023-01-02T04:35:00Z,28.1809,-89.2854,9.5,23.9,11111222
Shell,ioos:station:wmo:42882:1,2023-01-02T04:45:00Z,28.1809,-89.2854,9.5,23.9,11111222
Shell,ioos:station:wmo:42882:1,2023-01-02T04:54:00Z,28.1809,-89.2854,9.6,23.9,11111222
Shell,ioos:station:wmo:42882:1,2023-01-02T05:05:00Z,28.1809,-89.2854,9.6,23.9,11111222
Shell,ioos:station:wmo:42882:1,2023-01-02T05:15:00Z,28.1809,-89.2854,9.5,23.9,11111222
Shell,ioos:station:wmo:42882:1,2023-01-02T05:25:00Z,28.1809,-89.2854,9.5,23.9,11111222
Shell,ioos:station:wmo:42882:1,2023-01-02T05:35:00Z,28.1809,-89.2854,9.5,23.9,11111222
Shell,ioos:station:wmo:42882:1,2023-01-02T05:44:00Z,28.1809,-89.2854,9.5,23.9,11111222
Shell,ioos:station:wmo:42882:1,2023-01-02T05:55:00Z,28.1809,-89.2854,9.4,23.9,11111222
Shell,ioos:station:wmo:42882:1,2023-01-02T06:05:00Z,28.1809,-89.2854,9.4,23.8,11111222
Shell,ioos:station:wmo:42882:1,2023-01-02T06:15:00Z,28.1809,-89.2854,9.4,23.8,11111222
Shell,ioos:station:wmo:42882:1,2023-01-02T06:25:00Z,28.1809,-89.2854,9.4,23.7,11111222
Shell,ioos:station:wmo:42882:1,2023-01-02T06:35:00Z,28.1809,-89.2854,9.4,23.7,11111222
Shell,ioos:station:wmo:42882:1,2023-01-02T06:45:00Z,28.1809,-89.2854,9.4,23.7,11111222
Shell,ioos:station:wmo:42882:1,2023-01-02T06:55:00Z,28.1809,-89.2854,9.4,23.7,11111222
Shell,ioos:station:wmo:42882:1,2023-01-02T07:04:00Z,28.1809,-89.2854,9.4,23.7,11111222
Shell,ioos:station:wmo:42882:1,2023-01-02T07:15:00Z,28.1809,-89.2854,9.4,23.6,11111222
Shell,ioos:station:wmo:42882:1,2023-01-02T07:25:00Z,28.1809,-89.2854,9.4,23.5,11111222
Shell,ioos:station:wmo:42882:1,2023-01-02T07:35:00Z,28.1809,-89.2854,9.3,23.4,11111222
Shell,ioos:station:wmo:42882:1,2023-01-02T07:45:00Z,28.1809,-89.2854,9.3,23.4,11111222
Shell,ioos:station:wmo:42882:1,2023-01-02T07:54:00Z,28.1809,-89.2854,9.4,23.5,11111222
Shell,ioos:station:wmo:42882:1,2023-01-02T08:04:00Z,28.1809,-89.2854,9.2,23.4,11111222
Shell,ioos:station:wmo:42882:1,2023-01-02T08:15:00Z,28.1809,-89.2854,9.4,23.4,11111222
Shell,ioos:station:wmo:42882:1,2023-01-02T08:25:00Z,28.1809,-89.2854,9.5,23.4,11111222
Shell,ioos:station:wmo:42882:1,2023-01-02T08:35:00Z,28.1809,-89.2854,9.6,23.5,11111222
Shell,ioos:station:wmo:42882:1,2023-01-02T08:45:00Z,28.1809,-89.2854,9.4,23.4,11111222
Shell,ioos:station:wmo:42882:1,2023-01-02T08:55:00Z,28.1809,-89.2854,9.4,23.4,11111222
Shell,ioos:station:wmo:42882:1,2023-01-02T09:05:00Z,28.1809,-89.2854,9.4,23.4,11111222
Shell,ioos:station:wmo:42882:1,2023-01-02T09:15:00Z,28.1809,-89.2854,9.4,23.4,11111222
Shell,ioos:station:wmo:42882:1,2023-01-02T09:24:00Z,28.1809,-89.2854,9.4,23.3,11111222
Shell,ioos:station:wmo:42882:1,2023-01-02T09:35:00Z,28.1809,-89.2854,9.3,23.1,11111222
Shell,ioos:station:wmo:42882:1,2023-01-02T09:45:00Z,28.1809,-89.2854,9.7,23.1,11111222
Shell,ioos:station:wmo:42882:1,2023-01-02T09:55:00Z,28.1809,-89.2854,9.4,23.0,11111222
Shell,ioos:station:wmo:42882:1,2023-01-02T10:04:00Z,28.1809,-89.2854,9.6,22.8,11111222
Shell,ioos:station:wmo:42882:1,2023-01-02T10:15:00Z,28.1809,-89.2854,9.4,22.8,11111222
Shell,ioos:station:wmo:42882:1,2023-01-02T10:24:00Z,28.1809,-89.2854,9.5,22.8,11111222
Shell,ioos:station:wmo:42882:1,2023-01-02T10:34:00Z,28.1809,-89.2854,9.5,22.7,11111222
Shell,ioos:station:wmo:42882:1,2023-01-02T10:45:00Z,28.1809,-89.2854,9.2,22.6,11111222
Shell,ioos:station:wmo:42882:1,2023-01-02T10:54:00Z,28.1809,-89.2854,9.2,22.6,11111222
Shell,ioos:station:wmo:42882:1,2023-01-02T11:05:00Z,28.1809,-89.2854,9.2,22.4,11111222
Shell,ioos:station:wmo:42882:1,2023-01-02T11:15:00Z,28.1809,-89.2854,9.4,22.6,11111222
Shell,ioos:station:wmo:42882:1,2023-01-02T11:24:00Z,28.1809,-89.2854,9.3,22.6,11111222
Shell,ioos:station:wmo:42882:1,2023-01-02T11:35:00Z,28.1809,-89.2854,9.3,22.7,11111222
Shell,ioos:station:wmo:42882:1,2023-01-02T11:45:00Z,28.1809,-89.2854,9.3,22.7,11111222
Shell,ioos:station:wmo:42882:1,2023-01-02T11:55:00Z,28.1809,-89.2854,9.3,22.6,11111222
Shell,ioos:station:wmo:42882:1,2023-01-02T12:05:00Z,28.1809,-89.2854,9.3,22.6,11111222
Shell,ioos:station:wmo:42882:1,2023-01-02T12:14:00Z,28.1809,-89.2854,9.3,22.7,11111222
Shell,ioos:station:wmo:42882:1,2023-01-02T12:25:00Z,28.1809,-89.2854,9.3,22.9,11111222
Shell,ioos:station:wmo:42882:1,2023-01-02T12:35:00Z,28.1809,-89.2854,9.3,23.0,11111222
Shell,ioos:station:wmo:42882:1,2023-01-02T12:45:00Z,28.1809,-89.2854,9.3,23.0,11111222
Shell,ioos:station:wmo:42882:1,2023-01-02T12:55:00Z,28.1809,-89.2854,9.3,22.8,11111222
Shell,ioos:station:wmo:42882:1,2023-01-02T13:04:00Z,28.1809,-89.2854,9.3,22.7,11111222
Shell,ioos:station:wmo:42882:1,2023-01-02T13:15:00Z,28.1809,-89.2854,9.2,22.5,11111222
Shell,ioos:station:wmo:42882:1,2023-01-02T13:25:00Z,28.1809,-89.2854,9.2,22.3,11111222
Shell,ioos:station:wmo:42882:1,2023-01-02T13:35:00Z,28.1809,-89.2854,9.2,22.2,11111222
Shell,ioos:station:wmo:42882:1,2023-01-02T13:45:00Z,28.1809,-89.2854,9.2,22.1,11111222
Shell,ioos:station:wmo:42882:1,2023-01-02T13:54:00Z,28.1809,-89.2854,9.3,22.0,11111222
Shell,ioos:station:wmo:42882:1,2023-01-02T14:04:00Z,28.1809,-89.2854,9.3,22.0,11111222
Shell,ioos:station:wmo:42882:1,2023-01-02T14:14:00Z,28.1809,-89.2854,9.3,22.0,11111222
Shell,ioos:station:wmo:42882:1,2023-01-02T14:24:00Z,28.1809,-89.2854,9.2,21.9,11111222
Shell,ioos:station:wmo:42882:1,2023-01-02T14:35:00Z,28.1809,-89.2854,9.2,21.9,11111222
Shell,ioos:station:wmo:42882:1,2023-01-02T14:45:00Z,28.1809,-89.2854,9.2,21.8,11111222
Shell,ioos:station:wmo:42882:1,2023-01-02T14:55:00Z,28.1809,-89.2854,9.2,21.8,11111222
Shell,ioos:station:wmo:42882:1,2023-01-02T15:05:00Z,28.1809,-89.2854,9.2,21.5,11111222
Shell,ioos:station:wmo:42882:1,2023-01-02T15:15:00Z,28.1809,-89.2854,9.1,21.4,11111222
Shell,ioos:station:wmo:42882:1,2023-01-02T15:25:00Z,28.1809,-89.2854,9.0,21.3,11111222
Shell,ioos:station:wmo:42882:1,2023-01-02T15:35:00Z,28.1809,-89.2854,9.1,21.2,11111222
Shell,ioos:station:wmo:42882:1,2023-01-02T15:45:00Z,28.1809,-89.2854,9.2,21.2,11111222
Shell,ioos:station:wmo:42882:1,2023-01-02T15:55:00Z,28.1809,-89.2854,9.2,21.2,11111222
Shell,ioos:station:wmo:42882:1,2023-01-02T16:05:00Z,28.1809,-89.2854,9.2,21.3,11111222
Shell,ioos:station:wmo:42882:1,2023-01-02T16:14:00Z,28.1809,-89.2854,9.2,21.1,11111222
Shell,ioos:station:wmo:42882:1,2023-01-02T16:25:00Z,28.1809,-89.2854,9.1,21.0,11111222
Shell,ioos:station:wmo:42882:1,2023-01-02T16:35:00Z,28.1809,-89.2854,9.2,21.0,11111222
Shell,ioos:station:wmo:42882:1,2023-01-02T16:45:00Z,28.1809,-89.2854,9.2,20.9,11111222
Shell,ioos:station:wmo:42882:1,2023-01-02T16:55:00Z,28.1809,-89.2854,9.2,20.9,11111222
Shell,ioos:station:wmo:42882:1,2023-01-02T17:05:00Z,28.1809,-89.2854,9.0,20.9,11111222
Shell,ioos:station:wmo:42882:1,2023-01-02T17:15:00Z,28.1809,-89.2854,9.6,20.9,11111222
Shell,ioos:station:wmo:42882:1,2023-01-02T17:25:00Z,28.1809,-89.2854,9.2,20.9,11111222
Shell,ioos:station:wmo:42882:1,2023-01-02T17:35:00Z,28.1809,-89.2854,9.0,20.9,11111222
Shell,ioos:station:wmo:42882:1,2023-01-02T17:45:00Z,28.1809,-89.2854,9.1,20.9,11111222
Shell,ioos:station:wmo:42882:1,2023-01-02T17:55:00Z,28.1809,-89.2854,8.9,20.9,11111222
Shell,ioos:station:wmo:42882:1,2023-01-02T18:04:00Z,28.1809,-89.2854,9.1,20.9,11111222
Shell,ioos:station:wmo:42882:1,2023-01-02T18:15:00Z,28.1809,-89.2854,9.1,20.9,11111222
Shell,ioos:station:wmo:42882:1,2023-01-02T18:25:00Z,28.1809,-89.2854,9.0,20.8,11111222
Shell,ioos:station:wmo:42882:1,2023-01-02T18:35:00Z,28.1809,-89.2854,9.0,20.8,11111222
Shell,ioos:station:wmo:42882:1,2023-01-02T18:45:00Z,28.1809,-89.2854,9.2,20.8,11111222
Shell,ioos:station:wmo:42882:1,2023-01-02T18:55:00Z,28.1809,-89.2854,9.2,20.8,11111222
Shell,ioos:station:wmo:42882:1,2023-01-02T19:05:00Z,28.1809,-89.2854,9.1,20.8,11111222
Shell,ioos:station:wmo:42882:1,2023-01-02T19:15:00Z,28.1809,-89.2854,9.2,20.8,11111222
Shell,ioos:station:wmo:42882:1,2023-01-02T19:25:00Z,28.1809,-89.2854,9.1,20.8,11111222
Shell,ioos:station:wmo:42882:1,2023-01-02T19:35:00Z,28.1809,-89.2854,9.1,20.8,11111222
Shell,ioos:station:wmo:42882:1,2023-01-02T19:45:00Z,28.1809,-89.2854,9.0,20.8,11111222
Shell,ioos:station:wmo:42882:1,2023-01-02T19:55:00Z,28.1809,-89.2854,9.2,20.8,11111222
Shell,ioos:station:wmo:42882:1,2023-01-02T20:05:00Z,28.1809,-89.2854,9.2,20.7,11111222
Shell,ioos:station:wmo:42882:1,2023-01-02T20:15:00Z,28.1809,-89.2854,9.2,20.7,11111222
Shell,ioos:station:wmo:42882:1,2023-01-02T20:25:00Z,28.1809,-89.2854,9.2,20.7,11111222
Shell,ioos:station:wmo:42882:1,2023-01-02T20:35:00Z,28.1809,-89.2854,9.1,20.7,11111222
Shell,ioos:station:wmo:42882:1,2023-01-02T20:45:00Z,28.1809,-89.2854,9.0,20.8,11111222
Shell,ioos:station:wmo:42882:1,2023-01-02T20:54:00Z,28.1809,-89.2854,9.3,20.8,11111222
Shell,ioos:station:wmo:42882:1,2023-01-02T21:05:00Z,28.1809,-89.2854,9.1,20.8,11111222